Regional Weather Roundup
Issued by NWS Newport/Morehead, NC

Current Version | Previous Version | Text Only | Print | Product List | Glossary On
Versions: 1 2 3 4 5 6 7 8 9 10 11 12 13 14 15 16 17 18 19 20 21 22 23 24 25 26 27 28 29 30 31 32 33 34 35 36 37 38 39 40 41 42 43 44 45 46 47 48 49 50
000
ASUS42 KMHX 260313
RWRMHX
WEATHER ROUNDUP FOR EASTERN NORTH CAROLINA
NATIONAL WEATHER SERVICE NEWPORT/MOREHEAD CITY NC
1100 PM EDT SUN SEP 25 2016

NOTE: "FAIR" INDICATES FEW OR NO CLOUDS BELOW 12,000 FEET
WITH NO SIGNIFICANT WEATHER AND/OR OBSTRUCTIONS TO VISIBILITY

NCZ015>017-031-032-045>047-102-103-260400-
NORTH COAST

CITY           SKY/WX    TMP DP  RH WIND       PRES   REMARKS
EDENTON        MOCLDY    66  60  81 CALM      30.17S
ELIZABETH CITY PTCLDY    66  58  75 E6        30.17S
KITTY HAWK     NOT AVBL
MANTEO         CLEAR     67  57  69 E5        30.17S

$$

NCZ045>047-081-094-103-104-260400-
CENTRAL COAST

CITY           SKY/WX    TMP DP  RH WIND       PRES   REMARKS
FRISCO         CLEAR     68  57  68 NE6       30.14F

$$

NCZ095-097-098-100-101-260400-
SOUTHERN COAST

CITY           SKY/WX    TMP DP  RH WIND       PRES   REMARKS
BEAUFORT       CLOUDY    72  60  66 NE8       30.14S
CEDAR ISLAND   NOT AVBL
JACKSONVILLE   PTCLDY    70  62  76 E8        30.13F
PINEY ISLAND   CLOUDY   N/A N/A N/A NE10      30.14F
WILMINGTON     PTCLDY    72  65  78 NE6       30.12S


$$

NCZ011>013-027>030-043-044-078>080-089-090>093-098-260400-
COASTAL PLAIN

CITY           SKY/WX    TMP DP  RH WIND       PRES   REMARKS
AHOSKIE        CLEAR     62  61  96 CALM      30.18R
CLINTON        CLEAR     71  66  85 CALM      30.14F
ELIZABETHTOWN  MOCLDY    72  67  85 CALM      30.13F
GOLDSBORO      MOCLDY    68  66  94 NE6       30.13F
GREENVILLE     CLEAR     66  63  88 E3        30.17S
HAVELOCK       CLOUDY    71  61  70 E6        30.15F
KENANSVILLE    CLOUDY    68  64  88 CALM      30.15F
KINSTON        CLEAR     68  61  78 E5        30.16S
NEW BERN       CLOUDY    69  59  70 E6        30.16F
RICHLANDS      CLOUDY    69  63  81 NE5       30.15S
ROCKY MOUNT    MOCLDY    64  64 100 CALM      30.16S
WASHINGTON     NOT AVBL
WHITEVILLE     NOT AVBL

$$

AMZ130-135-150-152-154-156-158-170-250-252-270-ANZ085-086-088-633-658-670-260400-
MARINE OBSERVATIONS

STATION/POSITION TIME  TEMP    WIND        PRES    WAVE   SWELL
                       AIR SEA DIR/SP/G            HT/PER HT/PER
                 (UTC) (F)     (DEG/KT/KT) (MB)    (FT/S) (FT/S)
CHESAPEAKE LIGHT NOT AVBL
64 E VA BEACH    0250   70 75   70/ 12/ 16 1021.1    4/ 9   3/ 9
DUCK             0242   70 77   60/  8/ 11 1021.1
2 E DUCK         0241      76                N/A     3/10   2/11
OREGON INLET     0242   70 77   50/  6/ 10 1021.1
13E OREGON INLT  0300      76                N/A     4/10   3/10
HATTERAS CG      0248   71 79   50/  7/  9 1020.4
DIAMOND BUOY     0250   74 85   40/ 14/ 17 1020.1    4/ 8   3/ 8
CAPE LOOKOUT     0200   74      50/ 15/ 18 1020.4
BEAUFORT LAB     0248   72 78   40/  6/  8 1020.1
30 SE NEW RVR IN 0208   76 81   70/ 17/ 21 1020.1
30 SE NEW RVR IN 0255      81                N/A     5/ 6
27 SE WRIGHTSVLE 0208   77 81   80/ 17/ 25 1019.6
5 SE WRIGHTSVLE  0208   76 81   90/ 17/ 23 1020.5
225 S CAPE HAT   0250   82 83   70/ 12/ 14 1017.7    3/ 9   3/ 9
41 SE CHARLESTON 0250   81 82   60/ 17/ 21 1017.2    5/ 9   2/ 9

$$




USA.gov is the U.S. government's official web portal to all federal, state and local government web resources and services.